Tracking 18980 objects as of 21-Feb-2018
HD Live streaming from Space Station
objects crossing your sky now

GORIZONT 19

Track GORIZONT 19 now!
GORIZONT 19 is classified as:


NORAD ID: 20263
Int'l Code: 1989-081A
Perigee: 35,741.3 km
Apogee: 35,799.9 km
Inclination: 14.8 °
Period: 1,434.9 minutes
Semi major axis: 42141 km
RCS: 7.9432 m2 (large)
Launch date: September 28, 1989
Source: Commonwealth of Independent States (former USSR) (CIS)
Launch site: TYURATAM MISSILE AND SPACE COMPLEX (TTMTR)
aabbcc
Your satellite tracking list
Your tracking list is empty




NASA's NSSDC Master Catalog

Two Line Element Set (TLE):
1 20263U 89081A   18050.86728913 -.00000193 +00000-0 +00000-0 0  9991
2 20263 014.8403 358.9275 0006951 265.4295 279.8380 01.00354502016866
Source of the keplerian elements: AFSPC